MST,Max TemperatureF,Mean TemperatureF,Min TemperatureF,Max Dew PointF,MeanDew PointF,Min DewpointF,Max Humidity, Mean Humidity, Min Humidity, Max Sea Level PressureIn, Mean Sea Level PressureIn, Min Sea Level PressureIn, Max VisibilityMiles, Mean VisibilityMiles, Min VisibilityMiles, Max Wind SpeedMPH, Mean Wind SpeedMPH, Max Gust SpeedMPH,PrecipitationIn, CloudCover, Events, WindDirDegrees
2013-1-1,69,64,59,63,60,54,94,86,73,29.98,29.90,29.86,15,12,10,9,7,,0.00,7,,10
2013-1-2,80,70,60,63,60,57,94,75,45,29.92,29.87,29.82,15,12,8,10,8,,0.00,4,,293
2013-1-3,80,68,57,63,58,54,88,74,51,29.98,29.92,29.76,15,12,8,15,7,,0.00,3,,284
2013-1-4,82,70,57,63,57,50,94,71,48,30.06,29.98,29.93,15,12,10,16,8,,0.00,3,,268
2013-1-5,78,64,51,59,53,48,94,71,42,30.08,30.01,29.96,15,12,10,16,7,,0.00,0,,299
2013-1-6,78,64,51,61,54,48,94,75,44,30.00,29.92,29.85,15,13,10,13,8,,0.00,2,,309
2013-1-7,75,63,51,63,55,48,94,80,61,29.92,29.87,29.84,15,11,10,10,7,,0.00,4,,354
2013-1-8,73,62,48,55,48,39,88,65,35,30.05,29.93,29.84,15,11,8,18,10,,0.00,3,,311
2013-1-9,73,58,42,46,42,37,93,64,27,30.04,29.96,29.91,15,12,10,12,8,,0.00,2,,342
2013-1-10,82,63,44,48,43,39,87,56,23,30.03,29.95,29.90,15,13,10,12,8,,0.00,3,,345
2013-1-11,80,66,51,55,51,46,82,64,37,29.97,29.92,29.86,15,12,10,9,6,,0.00,4,,292
2013-1-12,71,62,53,54,49,39,88,65,43,30.00,29.93,29.89,15,11,8,15,7,,0.00,7,,282
2013-1-13,71,58,46,48,44,39,87,63,43,29.96,29.92,29.86,15,12,10,14,6,,0.00,6,,284
2013-1-14,71,60,48,52,46,43,87,64,38,29.99,29.95,29.91,15,11,10,16,8,,0.00,5,,297
2013-1-15,71,60,48,46,42,36,87,59,38,30.01,29.96,29.90,15,11,10,15,7,,0.00,6,,277
2013-1-16,75,60,44,52,45,36,87,65,38,30.14,29.92,29.84,12,11,10,13,6,,0.00,6,,287
2013-1-17,80,64,48,55,48,43,87,63,26,30.02,29.96,29.92,15,12,10,17,7,,0.00,6,,314
2013-1-18,80,68,53,55,46,37,77,56,21,30.03,29.98,29.93,15,12,10,12,8,,0.00,6,,357
2013-1-19,80,64,48,54,48,43,88,64,28,30.05,29.98,29.91,15,12,10,10,7,,0.00,4,,271
2013-1-20,78,64,51,55,53,48,94,69,42,29.99,29.92,29.85,15,12,10,13,7,,0.00,6,,293
2013-1-21,80,66,53,64,56,50,94,75,47,29.99,29.92,29.86,15,12,10,10,7,,0.00,2,,323
2013-1-22,82,68,53,63,56,50,94,73,48,30.01,29.95,29.88,15,12,10,12,8,,0.00,0,,298
2013-1-23,82,68,55,64,57,52,94,73,42,30.06,30.02,29.97,15,12,10,10,7,,0.00,5,,326
2013-1-24,82,68,55,63,57,52,94,72,47,30.09,30.01,29.94,15,12,10,10,8,,0.00,2,,322
2013-1-25,82,68,53,66,57,45,94,75,34,30.02,29.94,29.88,15,11,10,12,7,,0.00,0,,37
2013-1-26,80,68,55,66,59,54,100,85,54,30.01,29.95,29.89,11,7,0,13,8,,0.00,5,Fog,28
2013-1-27,82,68,55,66,60,54,100,83,54,30.01,29.97,29.92,12,9,3,10,7,,0.00,0,Fog,338
2013-1-28,82,70,57,64,58,52,100,75,54,30.06,30.01,29.96,15,8,0,14,7,,0.00,2,Fog,314
2013-1-29,78,68,55,55,53,48,77,63,41,30.08,30.01,29.95,15,11,10,16,8,,0.00,7,,273
2013-1-30,78,64,50,55,51,46,94,68,44,30.00,29.94,29.88,15,12,8,18,6,,0.00,5,,288
2013-1-31,78,63,48,57,52,45,88,71,42,29.99,29.92,29.88,15,12,4,13,6,,0.00,5,,335